EW2235 Weather Reports


Display with metric or nautical units.
time (UTC)temp
F
wind
direction
speed
MPH
gust
MPH
rain 1hr
in
rain 24hr
in
rain mn
in
humidity
%
barometer
mb
20210621191327 88 124 1.0 2.0 0.00 0.00 0.00 44 1009.9
20210621190823 87 328 1.0 4.0 0.00 0.00 0.00 44 1009.9
20210621190318 87 75 2.0 4.0 0.00 0.00 0.00 44 1010.0
20210621185814 86 276 0.0 2.0 0.00 0.00 0.00 46 1010.0
20210621185330 86 3 0.0 2.0 0.00 0.00 0.00 45 1010.1
20210621184826 86 322 0.0 2.0 0.00 0.00 0.00 44 1010.1
20210621184326 85 327 1.0 2.0 0.00 0.00 0.00 45 1010.1
20210621183822 85 78 0.0 2.0 0.00 0.00 0.00 47 1010.1
20210621183320 84 235 0.0 4.0 0.00 0.00 0.00 48 1010.2
20210621182816 83 226 1.0 4.0 0.00 0.00 0.00 50 1010.1
20210621182311 84 257 1.0 4.0 0.00 0.00 0.00 49 1010.2
20210621181828 84 258 1.0 3.0 0.00 0.00 0.00 49 1010.1
20210621181323 84 38 0.0 2.0 0.00 0.00 0.00 51 1010.2
20210621180823 83 338 0.0 3.0 0.00 0.00 0.00 51 1010.3
20210621180319 82 119 0.0 3.0 0.00 0.00 0.00 53 1010.3
20210621175815 82 294 1.0 4.0 0.00 0.00 0.00 53 1010.3
20210621175330 82 237 1.0 4.0 0.00 0.00 0.00 51 1010.3
20210621174828 82 48 0.0 3.0 0.00 0.00 0.00 52 1010.2
20210621174324 82 270 1.0 3.0 0.00 0.00 0.00 51 1010.3
20210621173820 82 105 1.0 4.0 0.00 0.00 0.00 53 1010.3
20210621173321 81 217 1.0 4.0 0.00 0.00 0.00 53 1010.4
20210621172817 81 91 0.0 2.0 0.00 0.00 0.00 54 1010.3
20210621172311 81 143 1.0 2.0 0.00 0.00 0.00 54 1010.4
20210621171829 80 149 0.0 3.0 0.00 0.00 0.00 55 1010.4
20210621171325 80 252 1.0 3.0 0.00 0.00 0.00 55 1010.3
20210621170821 80 214 0.0 2.0 0.00 0.00 0.00 54 1010.3
20210621170317 81 309 0.0 2.0 0.00 0.00 0.00 55 1010.3
20210621165817 80 200 0.0 2.0 0.00 0.00 0.00 54 1010.3
20210621165312 80 226 0.0 2.0 0.00 0.00 0.00 55 1010.4
20210621164829 80 220 0.0 2.0 0.00 0.00 0.00 55 1010.3
20210621164324 79 49 0.0 1.0 0.00 0.00 0.00 57 1010.4
20210621163820 79 21 0.0 2.0 0.00 0.00 0.00 57 1010.4
20210621163318 78 62 0.0 2.0 0.00 0.00 0.00 58 1010.4
20210621162813 78 98 0.0 1.0 0.00 0.00 0.00 57 1010.4
20210621162313 77 102 0.0 1.0 0.00 0.00 0.00 59 1010.4
20210621161831 77 42 0.0 1.0 0.00 0.00 0.00 59 1010.4
20210621161326 76 330 0.0 1.0 0.00 0.00 0.00 59 1010.4
20210621160822 76 27 0.0 2.0 0.00 0.00 0.00 61 1010.5
20210621160318 76 73 0.0 3.0 0.00 0.00 0.00 60 1010.5
20210621155813 76 70 0.0 3.0 0.00 0.00 0.00 61 1010.4
20210621155329 75 55 0.0 2.0 0.00 0.00 0.00 61 1010.5
20210621154811 75 346 0.0 2.0 0.00 0.00 0.00 61 1010.5
20210621154327 75 310 0.0 1.0 0.00 0.00 0.00 63 1010.5
20210621153821 75 335 0.0 1.0 0.00 0.00 0.00 63 1010.6
20210621153317 74 37 0.0 1.0 0.00 0.00 0.00 63 1010.6
20210621152812 74 311 0.0 2.0 0.00 0.00 0.00 62 1010.5
20210621152327 74 69 0.0 2.0 0.00 0.00 0.00 62 1010.5
20210621151825 74 86 0.0 1.0 0.00 0.00 0.00 62 1010.5
20210621151325 74 268 0.0 1.0 0.00 0.00 0.00 63 1010.5
20210621150821 73 113 0.0 2.0 0.00 0.00 0.00 63 1010.6
20210621150317 73 110 0.0 2.0 0.00 0.00 0.00 64 1010.6
20210621145813 73 42 0.0 1.0 0.00 0.00 0.00 64 1010.7
20210621145328 73 14 0.0 1.0 0.00 0.00 0.00 64 1010.8
20210621144825 72 1 0.0 1.0 0.00 0.00 0.00 63 1010.8
20210621144320 72 25 0.0 0.0 0.00 0.00 0.00 64 1010.8
20210621143820 72 51 0.0 1.0 0.00 0.00 0.00 65 1010.7
20210621143318 71 51 0.0 1.0 0.00 0.00 0.00 66 1010.7
20210621142813 71 68 0.0 1.0 0.00 0.00 0.00 66 1010.7
20210621142329 70 53 0.0 1.0 0.00 0.00 0.00 69 1010.7
20210621141826 70 39 0.0 1.0 0.00 0.00 0.00 70 1010.7
20210621141321 69 82 0.0 1.0 0.00 0.00 0.00 71 1010.7
20210621140817 69 77 0.0 1.0 0.00 0.00 0.00 71 1010.6
20210621140317 69 98 0.0 2.0 0.00 0.00 0.00 72 1010.7
20210621135813 68 48 0.0 2.0 0.00 0.00 0.00 72 1010.6
20210621135329 68 46 0.0 1.0 0.00 0.00 0.00 73 1010.6
20210621134826 67 44 0.0 1.0 0.00 0.00 0.00 75 1010.7
20210621134322 66 44 0.0 1.0 0.00 0.00 0.00 77 1010.6
20210621133818 65 34 0.0 1.0 0.00 0.00 0.00 79 1010.6
20210621133315 64 281 0.0 1.0 0.00 0.00 0.00 80 1010.6
20210621132814 64 86 0.0 1.0 0.00 0.00 0.00 81 1010.6
20210621132330 63 86 0.0 1.0 0.00 0.00 0.00 82 1010.6
20210621131828 63 86 0.0 1.0 0.00 0.00 0.00 82 1010.6
20210621131324 63 86 0.0 1.0 0.00 0.00 0.00 82 1010.6
20210621130819 63 86 0.0 0.0 0.00 0.00 0.00 81 1010.6
20210621130315 64 86 0.0 0.0 0.00 0.00 0.00 80 1010.6
20210621125831 63 86 0.0 0.0 0.00 0.00 0.00 80 1010.6
20210621125326 63 86 0.0 1.0 0.00 0.00 0.00 80 1010.5
20210621124827 64 88 0.0 0.0 0.00 0.00 0.00 80 1010.4
20210621124323 64 88 0.0 0.0 0.00 0.00 0.00 79 1010.4
20210621123819 64 88 0.0 1.0 0.00 0.00 0.00 78 1010.3
20210621123316 64 88 0.0 1.0 0.00 0.00 0.00 78 1010.3
20210621122812 64 107 0.0 1.0 0.00 0.00 0.00 78 1010.2
20210621122327 64 70 0.0 0.0 0.00 0.00 0.00 78 1010.2
20210621121825 65 70 0.0 0.0 0.00 0.00 0.00 77 1010.2
20210621121324 65 70 0.0 2.0 0.00 0.00 0.00 77 1010.1
20210621120820 65 70 0.0 2.0 0.00 0.00 0.00 76 1010.1
20210621120316 65 59 0.0 2.0 0.00 0.00 0.00 76 1010.0
20210621115812 65 12 0.0 2.0 0.00 0.00 0.00 76 1010.0
20210621115327 65 77 0.0 2.0 0.00 0.00 0.00 76 1010.0
20210621114825 66 283 0.0 3.0 0.00 0.00 0.00 75 1010.0
20210621114320 66 284 0.0 3.0 0.00 0.00 0.00 75 1009.9
20210621113820 66 9 1.0 3.0 0.00 0.00 0.00 75 1009.8
20210621113317 65 75 1.0 4.0 0.00 0.00 0.00 75 1009.8
20210621112812 66 74 0.0 4.0 0.00 0.00 0.00 74 1009.8
20210621112328 66 39 0.0 1.0 0.00 0.00 0.00 74 1009.8
20210621111826 66 84 0.0 2.0 0.00 0.00 0.00 74 1009.8
20210621111322 66 309 0.0 3.0 0.00 0.00 0.00 74 1009.8
20210621110817 66 311 0.0 3.0 0.00 0.00 0.00 74 1009.8
20210621110317 66 289 0.0 2.0 0.00 0.00 0.00 75 1009.7
20210621105813 66 319 0.0 1.0 0.00 0.00 0.00 75 1009.7
20210621105328 66 302 0.0 1.0 0.00 0.00 0.00 75 1009.8
20210621104825 65 309 0.0 0.0 0.00 0.00 0.00 76 1009.7
20210621104321 65 310 0.0 1.0 0.00 0.00 0.00 76 1009.7
20210621103817 65 321 0.0 1.0 0.00 0.00 0.00 76 1009.8
20210621103315 66 346 0.0 1.0 0.00 0.00 0.00 75 1009.7
20210621102814 66 52 0.0 1.0 0.00 0.00 0.00 75 1009.7
20210621102330 66 52 0.0 1.0 0.00 0.00 0.00 74 1009.8
20210621101827 67 300 0.0 1.0 0.00 0.00 0.00 73 1009.7
20210621101322 67 299 0.0 1.0 0.00 0.00 0.00 73 1009.6
20210621100818 67 44 0.0 2.0 0.00 0.00 0.00 72 1009.6
20210621100314 67 308 0.0 3.0 0.00 0.00 0.00 72 1009.6
20210621095829 68 319 0.0 3.0 0.00 0.00 0.00 72 1009.5
20210621095330 68 18 0.0 2.0 0.00 0.00 0.00 72 1009.6
20210621094827 68 305 0.0 2.0 0.00 0.00 0.00 71 1009.6
20210621094323 68 300 0.0 2.0 0.00 0.00 0.00 71 1009.6
20210621093817 68 316 0.0 2.0 0.00 0.00 0.00 71 1009.6
20210621093313 68 355 0.0 2.0 0.00 0.00 0.00 71 1009.6
20210621092828 68 322 0.0 2.0 0.00 0.00 0.00 71 1009.6
20210621092324 68 337 1.0 2.0 0.00 0.00 0.00 71 1009.6
20210621091826 69 3 0.0 2.0 0.00 0.00 0.00 71 1009.6
20210621091321 69 301 0.0 2.0 0.00 0.00 0.00 71 1009.6
20210621090818 69 311 0.0 2.0 0.00 0.00 0.00 70 1009.6
20210621090313 69 306 0.0 1.0 0.00 0.00 0.00 70 1009.6
20210621085828 69 294 0.0 1.0 0.00 0.00 0.00 70 1009.6
20210621085323 69 323 0.0 2.0 0.00 0.00 0.00 70 1009.6
20210621084821 69 297 0.0 2.0 0.00 0.00 0.00 70 1009.7
20210621084321 69 6 0.0 2.0 0.00 0.00 0.00 70 1009.7
20210621083817 70 314 0.0 2.0 0.00 0.00 0.00 70 1009.6
20210621083314 70 340 0.0 2.0 0.00 0.00 0.00 69 1009.6
20210621082829 70 321 0.0 2.0 0.00 0.00 0.00 69 1009.7
20210621082325 70 309 0.0 2.0 0.00 0.00 0.00 68 1009.6
20210621081821 70 331 0.0 2.0 0.00 0.00 0.00 68 1009.6
20210621081317 70 37 0.0 1.0 0.00 0.00 0.00 68 1009.7
20210621080817 71 290 0.0 1.0 0.00 0.00 0.00 68 1009.7
20210621080312 71 311 0.0 1.0 0.00 0.00 0.00 68 1009.6
20210621075828 71 306 0.0 1.0 0.00 0.00 0.00 68 1009.7
20210621075324 71 304 0.0 1.0 0.00 0.00 0.00 67 1009.6
20210621074822 72 82 0.0 1.0 0.00 0.00 0.00 66 1009.7
20210621074318 72 84 0.0 1.0 0.00 0.00 0.00 65 1009.8
20210621073813 72 68 0.0 1.0 0.00 0.00 0.00 64 1009.7
20210621073315 73 49 0.0 1.0 0.00 0.00 0.00 62 1009.6
20210621072829 73 51 0.0 1.0 0.00 0.00 0.00 61 1009.7
20210621072325 72 38 0.0 2.0 0.00 0.00 0.00 59 1009.7
20210621071823 72 19 0.0 2.0 0.00 0.00 0.00 63 1009.7
20210621071319 72 301 0.0 1.0 0.00 0.00 0.00 65 1009.7
20210621070814 72 312 0.0 1.0 0.00 0.00 0.00 66 1009.7
20210621070330 72 43 0.0 1.0 0.00 0.00 0.00 66 1009.7
20210621065826 72 260 0.0 1.0 0.00 0.00 0.00 67 1009.7
20210621065325 72 36 0.0 1.0 0.00 0.00 0.00 66 1009.7
20210621064822 72 327 0.0 1.0 0.00 0.00 0.00 67 1009.7
20210621064318 72 311 0.0 2.0 0.00 0.00 0.00 67 1009.8
20210621063814 73 339 0.0 2.0 0.00 0.00 0.00 67 1009.7
20210621063311 73 283 0.0 2.0 0.00 0.00 0.00 67 1009.7
20210621062827 73 292 0.0 2.0 0.00 0.00 0.00 67 1009.7
20210621062323 73 73 0.0 1.0 0.00 0.00 0.00 67 1009.7
20210621061824 73 309 0.0 1.0 0.00 0.00 0.00 67 1009.7
20210621061319 73 306 0.0 1.0 0.00 0.00 0.00 67 1009.7
20210621060815 74 99 0.0 1.0 0.00 0.00 0.00 67 1009.7
20210621060311 74 301 0.0 2.0 0.00 0.00 0.00 66 1009.7
20210621055826 74 54 0.0 3.0 0.00 0.00 0.00 66 1009.7
20210621055323 74 14 0.0 2.0 0.00 0.00 0.00 66 1009.7
20210621054821 74 316 0.0 3.0 0.00 0.00 0.00 65 1009.7
20210621054320 75 46 0.0 2.0 0.00 0.00 0.00 65 1009.7
20210621053816 75 325 0.0 2.0 0.00 0.00 0.00 65 1009.7
20210621053313 75 321 0.0 2.0 0.00 0.00 0.00 64 1009.7
20210621052828 75 316 0.0 3.0 0.00 0.00 0.00 64 1009.7
20210621052323 76 357 1.0 3.0 0.00 0.00 0.00 63 1009.7
20210621051821 76 305 0.0 3.0 0.00 0.00 0.00 63 1009.7
20210621051317 76 30 0.0 2.0 0.00 0.00 0.00 62 1009.7
20210621050817 77 7 0.0 2.0 0.00 0.00 0.00 62 1009.6
20210621050312 77 335 0.0 4.0 0.00 0.00 0.00 61 1009.6
20210621045828 77 324 1.0 4.0 0.00 0.00 0.00 61 1009.6
20210621045323 77 307 1.0 4.0 0.00 0.00 0.00 61 1009.6
20210621044821 77 315 0.0 2.0 0.00 0.00 0.00 61 1009.6
20210621044316 78 292 0.0 2.0 0.00 0.00 0.00 60 1009.6
20210621043812 78 308 1.0 3.0 0.00 0.00 0.00 60 1009.5
20210621043314 78 327 0.0 3.0 0.00 0.00 0.00 59 1009.3
20210621042829 78 212 0.0 3.0 0.00 0.00 0.00 59 1009.4
20210621042325 79 286 0.0 2.0 0.00 0.00 0.00 59 1009.2
20210621041822 79 335 0.0 3.0 0.00 0.00 0.00 58 1009.2
20210621041318 79 297 0.0 3.0 0.00 0.00 0.00 57 1009.1
20210621040813 80 290 1.0 3.0 0.00 0.00 0.00 57 1009.1
20210621040329 80 297 1.0 4.0 0.00 0.00 0.00 56 1009.1
20210621035828 81 310 0.0 4.0 0.00 0.00 0.00 55 1009.1
20210621035324 81 318 0.0 2.0 0.00 0.00 0.00 54 1009.1
20210621034822 81 106 0.0 4.0 0.00 0.00 0.00 53 1009.1
20210621034318 82 316 0.0 4.0 0.00 0.00 0.00 51 1009.0
20210621033813 83 285 1.0 3.0 0.00 0.00 0.00 48 1009.0
20210621033330 83 309 0.0 1.0 0.00 0.00 0.00 40 1009.0
20210621032825 84 18 0.0 2.0 0.00 0.00 0.00 38 1008.9
20210621032325 84 50 0.0 2.0 0.00 0.00 0.00 37 1008.9
20210621031823 85 41 0.0 4.0 0.00 0.00 0.00 36 1008.9
20210621031318 85 297 1.0 5.0 0.00 0.00 0.00 34 1008.8
20210621030814 86 46 1.0 6.0 0.00 0.00 0.00 35 1008.9
20210621030330 86 13 1.0 5.0 0.00 0.00 0.00 34 1008.8
20210621025826 86 36 1.0 5.0 0.00 0.00 0.00 34 1008.9
20210621025321 86 46 1.0 4.0 0.00 0.00 0.00 34 1008.8
20210621024822 86 45 1.0 4.0 0.00 0.00 0.00 34 1008.8
20210621024318 87 96 1.0 5.0 0.00 0.00 0.00 34 1008.8
20210621023814 87 93 1.0 5.0 0.00 0.00 0.00 34 1008.8
20210621023312 87 49 1.0 5.0 0.00 0.00 0.00 34 1008.8
20210621022827 87 86 1.0 5.0 0.00 0.00 0.00 33 1008.8
20210621022323 88 72 1.0 5.0 0.00 0.00 0.00 33 1008.7
20210621021820 88 312 1.0 5.0 0.00 0.00 0.00 33 1008.7
20210621021319 88 343 1.0 9.0 0.00 0.00 0.00 33 1008.7
20210621020816 88 72 3.0 8.0 0.00 0.00 0.00 32 1008.7
20210621020331 88 108 2.0 8.0 0.00 0.00 0.00 32 1008.7
20210621015826 88 297 3.0 6.0 0.00 0.00 0.00 32 1008.7
20210621015322 89 72 2.0 6.0 0.00 0.00 0.00 33 1008.7
20210621014820 89 13 1.0 7.0 0.00 0.00 0.00 32 1008.7
20210621014316 89 102 2.0 7.0 0.00 0.00 0.00 33 1008.8
20210621013816 89 314 1.0 7.0 0.00 0.00 0.00 32 1008.7
20210621013313 89 67 2.0 9.0 0.00 0.00 0.00 32 1008.7
20210621012828 90 1 1.0 9.0 0.00 0.00 0.00 32 1008.8
20210621012324 90 91 3.0 8.0 0.00 0.00 0.00 31 1008.9
20210621011822 90 103 3.0 9.0 0.00 0.00 0.00 31 1008.9
20210621011317 90 134 4.0 9.0 0.00 0.00 0.00 31 1009.0
20210621010813 91 79 2.0 12.0 0.00 0.00 0.00 31 1009.0
20210621010313 91 115 3.0 12.0 0.00 0.00 0.00 31 1009.0
20210621005828 91 114 2.0 12.0 0.00 0.00 0.00 32 1009.0
20210621005324 91 44 2.0 12.0 0.00 0.00 0.00 31 1009.2
20210621004821 91 41 1.0 4.0 0.00 0.00 0.00 32 1009.2
20210621004317 91 120 1.0 4.0 0.00 0.00 0.00 31 1009.1
20210621003811 91 100 1.0 7.0 0.00 0.00 0.00 32 1009.2
20210621003329 91 78 1.0 7.0 0.00 0.00 0.00 32 1009.2
20210621002824 91 72 2.0 9.0 0.00 0.00 0.00 31 1009.3
20210621002324 91 83 2.0 9.0 0.00 0.00 0.00 31 1009.2
20210621001821 91 2 3.0 8.0 0.00 0.00 0.00 31 1009.2
20210621001316 91 51 5.0 9.0 0.00 0.00 0.00 30 1009.3
20210621000811 91 57 4.0 9.0 0.00 0.00 0.00 31 1009.3
20210621000327 92 47 4.0 8.0 0.00 0.00 0.00 30 1009.4
20210620235823 92 354 2.0 9.0 0.00 0.00 0.00 32 1009.4
20210620235318 92 66 2.0 8.0 0.00 0.00 0.00 32 1009.5
20210620234820 92 326 2.0 9.0 0.00 0.00 0.00 32 1009.6
20210620233813 92 83 2.0 7.0 0.00 0.00 0.00 31 1009.6
20210620233329 92 150 2.0 7.0 0.00 0.00 0.00 31 1009.7
20210620232825 92 104 2.0 6.0 0.00 0.00 0.00 33 1009.8
20210620232320 91 79 2.0 8.0 0.00 0.00 0.00 32 1009.8
20210620231818 92 84 4.0 8.0 0.00 0.00 0.00 31 1009.9
20210620231318 92 68 3.0 7.0 0.00 0.00 0.00 33 1009.9
20210620230813 92 323 2.0 8.0 0.00 0.00 0.00 33 1009.9
20210620230329 91 42 3.0 9.0 0.00 0.00 0.00 34 1010.0
20210620225825 91 22 4.0 9.0 0.00 0.00 0.00 33 1010.0
20210620225321 91 349 3.0 8.0 0.00 0.00 0.00 34 1010.0
20210620224818 91 66 2.0 10.0 0.00 0.00 0.00 34 1010.1
20210620224313 91 64 3.0 10.0 0.00 0.00 0.00 34 1010.2
20210620223812 91 114 4.0 8.0 0.00 0.00 0.00 34 1010.2
20210620223330 91 27 3.0 8.0 0.00 0.00 0.00 36 1010.2
20210620222825 91 52 1.0 12.0 0.00 0.00 0.00 37 1010.3
20210620222321 91 39 3.0 12.0 0.00 0.00 0.00 37 1010.3
20210620221819 91 111 1.0 6.0 0.00 0.00 0.00 40 1010.3
20210620221314 90 110 1.0 8.0 0.00 0.00 0.00 41 1010.3
20210620220830 90 47 3.0 8.0 0.00 0.00 0.00 40 1010.4
20210620220330 90 346 2.0 8.0 0.00 0.00 0.00 40 1010.4
20210620215826 90 64 3.0 8.0 0.00 0.00 0.00 40 1010.5
20210620215321 90 113 1.0 7.0 0.00 0.00 0.00 42 1010.5
20210620214816 89 316 2.0 5.0 0.00 0.00 0.00 44 1010.5
20210620214311 89 356 2.0 8.0 0.00 0.00 0.00 42 1010.6
20210620213827 89 103 3.0 8.0 0.00 0.00 0.00 42 1010.6
20210620213325 89 97 1.0 6.0 0.00 0.00 0.00 44 1010.7
20210620212825 89 64 2.0 12.0 0.00 0.00 0.00 45 1010.7
20210620212320 88 34 2.0 12.0 0.00 0.00 0.00 45 1010.8
20210620211817 88 311 2.0 7.0 0.00 0.00 0.00 45 1010.8
20210620211313 87 358 2.0 9.0 0.00 0.00 0.00 46 1010.9
20210620210829 87 122 2.0 9.0 0.00 0.00 0.00 46 1010.9
20210620210324 87 72 2.0 6.0 0.00 0.00 0.00 47 1010.9
20210620205821 86 308 2.0 5.0 0.00 0.00 0.00 48 1011.0
20210620205320 86 96 1.0 7.0 0.00 0.00 0.00 49 1011.0
20210620204816 86 63 3.0 7.0 0.00 0.00 0.00 49 1011.1
20210620204311 85 91 1.0 11.0 0.00 0.00 0.00 50 1011.1
20210620203827 85 304 3.0 11.0 0.00 0.00 0.00 50 1011.2
20210620203324 84 70 2.0 8.0 0.00 0.00 0.00 51 1011.2
20210620202819 84 172 3.0 7.0 0.00 0.00 0.00 50 1011.4
20210620202316 84 320 2.0 7.0 0.00 0.00 0.00 52 1011.4
20210620201817 84 92 2.0 7.0 0.00 0.00 0.00 52 1011.5
20210620201313 83 306 3.0 7.0 0.00 0.00 0.00 52 1011.6
20210620200828 82 48 2.0 5.0 0.00 0.00 0.00 53 1011.7
20210620200324 82 321 2.0 5.0 0.00 0.00 0.00 54 1011.7
20210620195820 82 44 3.0 5.0 0.00 0.00 0.00 54 1011.8
20210620195316 81 72 2.0 6.0 0.00 0.00 0.00 55 1011.8
20210620194813 81 314 1.0 6.0 0.00 0.00 0.00 55 1011.9
20210620194312 81 307 1.0 5.0 0.00 0.00 0.00 56 1011.9
20210620193827 80 222 1.0 6.0 0.00 0.00 0.00 56 1012.0
20210620193324 80 38 2.0 6.0 0.00 0.00 0.00 57 1012.1
20210620192820 80 288 2.0 6.0 0.00 0.00 0.00 56 1012.1
20210620192316 80 297 1.0 6.0 0.00 0.00 0.00 56 1012.2
20210620191814 80 305 1.0 3.0 0.00 0.00 0.00 57 1012.2